Torna al catalogo

GALAXY 16

AttivoComunicazioniGEO
NORAD 29236·PAYLOAD·🇺🇸 United States

Lanciato Jun 18, 2006 da Sea Launch Platform

Loading…

TLE

AggiornatoSource: CelesTrak SupGP

Epoca: Sep 14, 2026, 00:00 UTC

1 29236C 06023A   26257.00000000 -.00000037  00000+0  00000+0 0  2571
2 29236   0.0167 198.1539 0002631 331.3490  84.4831  1.00272224    18

Traccia GALAXY 16 in tempo reale con AllMySat

Download on the App Store